Regional Weather Roundup
Issued by NWS Sioux Falls, SD

Home | Current Version | Previous Version | Graphics & Text | Print | Product List | Glossary On
Versions: 1 2 3 4 5 6 7 8 9 10 11 12 13 14 15 16 17 18 19 20 21 22 23 24 25 26 27 28 29 30 31 32 33 34 35 36 37 38 39 40 41 42 43 44 45 46 47 48 49 50
000
ASUS43 KFSD 280710
RWRFSD

WEATHER ROUNDUP FOR SE SOUTH DAKOTA/SW MINNESOTA/NW IOWA
NATIONAL WEATHER SERVICE SIOUX FALLS SD
200 AM CDT SUN MAY 28 2017

NOTE: "FAIR" INDICATES FEW OR NO CLOUDS BELOW 12,000 FEET WITH NO
SIGNIFICANT WEATHER AND OR OBSTRUCTIONS TO VISIBILITY.


SDZ038>040-050-052>070-280800-
SOUTHEAST SOUTH DAKOTA

CITY           SKY/WX    TMP DP  RH WIND       PRES   REMARKS
BROOKINGS      PTCLDY    56  50  80 W12       29.84F
CHAMBERLAIN    CLEAR     55  46  70 W7        29.92S
HURON          CLEAR     49  44  83 W8        29.86S
MADISON        FAIR      54  54 100 W12       29.86F
MITCHELL       PTCLDY    56  49  77 W8        29.88F
SIOUX FALLS    CLEAR     56  52  86 SW5       29.86F
WINNER         FAIR      52  45  77 SW7       29.95S
YANKTON        CLEAR     55  51  86 SW8       29.88F
$$

MNZ071-072-080-081-089-090-097-098-280800-
SOUTHWEST MINNESOTA

CITY           SKY/WX    TMP DP  RH WIND       PRES   REMARKS
FAIRMONT       PTCLDY    59  52  77 W10       29.85F
JACKSON        PTCLDY    55  50  82 SW7       29.86F
LUVERNE        CLEAR     52  46  82 W9        29.87F
MARSHALL       PTCLDY    59  49  69 W17       29.80F
MONTEVIDEO     CLOUDY    59  46  63 CALM      29.79F
PIPESTONE      CLEAR     54  46  76 SW8       29.85F
REDWOOD FALLS  PTCLDY    58  47  66 SW13      29.80S
TRACY          PTCLDY    58  50  76 SW15      29.83S
WINDOM         CLEAR     57  52  82 SW12      29.85S
WORTHINGTON    CLEAR     56  50  80 SW14      29.86F
$$

IAZ001>003-012>014-020>022-031-032-NEZ013-014-SDZ071-280800-
NORTHWEST IOWA

CITY           SKY/WX    TMP DP  RH WIND       PRES   REMARKS
CHEROKEE       PTCLDY    53  52  95 W5        29.89S
DENISON        PTCLDY    57  52  82 CALM      29.91F
ESTHERVILLE    PTCLDY    55  53  93 W9        29.85F
LE MARS        PTCLDY    54  52  94 S6        29.90F
ORANGE CITY    PTCLDY    54  52  94 W7        29.89F
SHELDON        CLEAR     54  52  94 W9        29.87S
SIOUX CITY     LGT RAIN  54  51  90 CALM      29.90F
SPENCER        PTCLDY    55  52  89 W10       29.87F
STORM LAKE     PTCLDY    54  50  87 W10       29.89F
$$

ABBREVIATIONS USED IN REMARKS
   TC - TEMPERATURE IN CELSIUS
  WCI - WIND CHILL INDEX
   HX - HEAT INDEX
  VSB - VISIBILITY





USA.gov is the U.S. government's official web portal to all federal, state and local government web resources and services.